owner,sensor,date,latitude,longitude,vertical_datum,sea_water_temperature,qcFlag 
TCOON,ioos:station:TCOON:057:1,2015-06-01T00:12:00Z,28.4460,-96.3961,0.0,30.0,2 
TCOON,ioos:station:TCOON:057:1,2015-06-01T01:12:00Z,28.4460,-96.3961,0.0,29.9,2 
TCOON,ioos:station:TCOON:057:1,2015-06-01T02:12:00Z,28.4460,-96.3961,0.0,29.8,2 
TCOON,ioos:station:TCOON:057:1,2015-06-01T03:12:00Z,28.4460,-96.3961,0.0,29.4,2 
TCOON,ioos:station:TCOON:057:1,2015-06-01T04:12:00Z,28.4460,-96.3961,0.0,29.0,2 
TCOON,ioos:station:TCOON:057:1,2015-06-01T05:18:00Z,28.4460,-96.3961,0.0,28.8,2 
TCOON,ioos:station:TCOON:057:1,2015-06-01T06:24:00Z,28.4460,-96.3961,0.0,28.8,2 
TCOON,ioos:station:TCOON:057:1,2015-06-01T07:36:00Z,28.4460,-96.3961,0.0,28.6,2 
TCOON,ioos:station:TCOON:057:1,2015-06-01T08:12:00Z,28.4460,-96.3961,0.0,28.6,2 
TCOON,ioos:station:TCOON:057:1,2015-06-01T09:12:00Z,28.4460,-96.3961,0.0,28.3,2 
TCOON,ioos:station:TCOON:057:1,2015-06-01T10:12:00Z,28.4460,-96.3961,0.0,28.1,2 
TCOON,ioos:station:TCOON:057:1,2015-06-01T11:12:00Z,28.4460,-96.3961,0.0,28.4,2 
TCOON,ioos:station:TCOON:057:1,2015-06-01T12:12:00Z,28.4460,-96.3961,0.0,27.5,2 
TCOON,ioos:station:TCOON:057:1,2015-06-01T13:12:00Z,28.4460,-96.3961,0.0,28.0,2 
TCOON,ioos:station:TCOON:057:1,2015-06-01T14:24:00Z,28.4460,-96.3961,0.0,28.1,2 
TCOON,ioos:station:TCOON:057:1,2015-06-01T15:18:00Z,28.4460,-96.3961,0.0,28.0,2 
TCOON,ioos:station:TCOON:057:1,2015-06-01T16:18:00Z,28.4460,-96.3961,0.0,28.3,2 
TCOON,ioos:station:TCOON:057:1,2015-06-01T17:18:00Z,28.4460,-96.3961,0.0,29.0,2 
TCOON,ioos:station:TCOON:057:1,2015-06-01T18:12:00Z,28.4460,-96.3961,0.0,29.6,2 
TCOON,ioos:station:TCOON:057:1,2015-06-01T19:12:00Z,28.4460,-96.3961,0.0,29.8,2 
TCOON,ioos:station:TCOON:057:1,2015-06-01T20:18:00Z,28.4460,-96.3961,0.0,30.0,2 
TCOON,ioos:station:TCOON:057:1,2015-06-01T21:18:00Z,28.4460,-96.3961,0.0,30.1,2 
TCOON,ioos:station:TCOON:057:1,2015-06-01T22:42:00Z,28.4460,-96.3961,0.0,30.6,2 
TCOON,ioos:station:TCOON:057:1,2015-06-01T23:18:00Z,28.4460,-96.3961,0.0,30.7,2 
TCOON,ioos:station:TCOON:057:1,2015-06-02T00:12:00Z,28.4460,-96.3961,0.0,30.6,2 
TCOON,ioos:station:TCOON:057:1,2015-06-02T01:12:00Z,28.4460,-96.3961,0.0,30.4,2 
TCOON,ioos:station:TCOON:057:1,2015-06-02T02:12:00Z,28.4460,-96.3961,0.0,30.3,2 
TCOON,ioos:station:TCOON:057:1,2015-06-02T03:12:00Z,28.4460,-96.3961,0.0,29.6,2 
TCOON,ioos:station:TCOON:057:1,2015-06-02T04:12:00Z,28.4460,-96.3961,0.0,29.4,2 
TCOON,ioos:station:TCOON:057:1,2015-06-02T05:18:00Z,28.4460,-96.3961,0.0,29.4,2 
TCOON,ioos:station:TCOON:057:1,2015-06-02T07:12:00Z,28.4460,-96.3961,0.0,29.1,2 
TCOON,ioos:station:TCOON:057:1,2015-06-02T08:18:00Z,28.4460,-96.3961,0.0,28.9,2 
TCOON,ioos:station:TCOON:057:1,2015-06-02T09:12:00Z,28.4460,-96.3961,0.0,28.7,2 
TCOON,ioos:station:TCOON:057:1,2015-06-02T10:12:00Z,28.4460,-96.3961,0.0,28.7,2 
TCOON,ioos:station:TCOON:057:1,2015-06-02T11:24:00Z,28.4460,-96.3961,0.0,28.7,2 
TCOON,ioos:station:TCOON:057:1,2015-06-02T12:12:00Z,28.4460,-96.3961,0.0,28.8,2 
TCOON,ioos:station:TCOON:057:1,2015-06-02T13:12:00Z,28.4460,-96.3961,0.0,28.7,2 
TCOON,ioos:station:TCOON:057:1,2015-06-02T14:18:00Z,28.4460,-96.3961,0.0,28.3,2 
TCOON,ioos:station:TCOON:057:1,2015-06-02T15:12:00Z,28.4460,-96.3961,0.0,28.2,2 
TCOON,ioos:station:TCOON:057:1,2015-06-02T16:12:00Z,28.4460,-96.3961,0.0,28.6,2 
TCOON,ioos:station:TCOON:057:1,2015-06-02T17:12:00Z,28.4460,-96.3961,0.0,28.8,2 
TCOON,ioos:station:TCOON:057:1,2015-06-02T18:12:00Z,28.4460,-96.3961,0.0,29.4,2 
TCOON,ioos:station:TCOON:057:1,2015-06-02T19:18:00Z,28.4460,-96.3961,0.0,29.6,2 
TCOON,ioos:station:TCOON:057:1,2015-06-02T20:18:00Z,28.4460,-96.3961,0.0,30.1,2 
TCOON,ioos:station:TCOON:057:1,2015-06-02T21:12:00Z,28.4460,-96.3961,0.0,30.2,2 
TCOON,ioos:station:TCOON:057:1,2015-06-02T22:18:00Z,28.4460,-96.3961,0.0,29.7,2 
TCOON,ioos:station:TCOON:057:1,2015-06-02T23:18:00Z,28.4460,-96.3961,0.0,29.7,2 
TCOON,ioos:station:TCOON:057:1,2015-06-03T00:12:00Z,28.4460,-96.3961,0.0,29.7,2 
TCOON,ioos:station:TCOON:057:1,2015-06-03T01:12:00Z,28.4460,-96.3961,0.0,29.9,2 
TCOON,ioos:station:TCOON:057:1,2015-06-03T02:12:00Z,28.4460,-96.3961,0.0,29.7,2 
TCOON,ioos:station:TCOON:057:1,2015-06-03T03:12:00Z,28.4460,-96.3961,0.0,29.6,2 
TCOON,ioos:station:TCOON:057:1,2015-06-03T04:18:00Z,28.4460,-96.3961,0.0,29.3,2 
TCOON,ioos:station:TCOON:057:1,2015-06-03T05:18:00Z,28.4460,-96.3961,0.0,29.3,2 
TCOON,ioos:station:TCOON:057:1,2015-06-03T07:12:00Z,28.4460,-96.3961,0.0,29.0,2 
TCOON,ioos:station:TCOON:057:1,2015-06-03T08:18:00Z,28.4460,-96.3961,0.0,28.7,2 
TCOON,ioos:station:TCOON:057:1,2015-06-03T09:12:00Z,28.4460,-96.3961,0.0,28.6,2 
TCOON,ioos:station:TCOON:057:1,2015-06-03T10:18:00Z,28.4460,-96.3961,0.0,28.2,2 
TCOON,ioos:station:TCOON:057:1,2015-06-03T11:12:00Z,28.4460,-96.3961,0.0,28.1,2 
TCOON,ioos:station:TCOON:057:1,2015-06-03T12:18:00Z,28.4460,-96.3961,0.0,27.8,2 
TCOON,ioos:station:TCOON:057:1,2015-06-03T13:18:00Z,28.4460,-96.3961,0.0,27.8,2 
TCOON,ioos:station:TCOON:057:1,2015-06-03T14:18:00Z,28.4460,-96.3961,0.0,28.0,2 
TCOON,ioos:station:TCOON:057:1,2015-06-03T15:12:00Z,28.4460,-96.3961,0.0,28.2,2 
TCOON,ioos:station:TCOON:057:1,2015-06-03T16:12:00Z,28.4460,-96.3961,0.0,28.4,2 
TCOON,ioos:station:TCOON:057:1,2015-06-03T17:18:00Z,28.4460,-96.3961,0.0,29.0,2 
TCOON,ioos:station:TCOON:057:1,2015-06-03T18:12:00Z,28.4460,-96.3961,0.0,29.0,2 
TCOON,ioos:station:TCOON:057:1,2015-06-03T19:12:00Z,28.4460,-96.3961,0.0,29.9,2 
TCOON,ioos:station:TCOON:057:1,2015-06-03T20:18:00Z,28.4460,-96.3961,0.0,30.0,2 
TCOON,ioos:station:TCOON:057:1,2015-06-03T21:18:00Z,28.4460,-96.3961,0.0,30.4,2 
TCOON,ioos:station:TCOON:057:1,2015-06-03T22:24:00Z,28.4460,-96.3961,0.0,31.0,2 
TCOON,ioos:station:TCOON:057:1,2015-06-03T23:12:00Z,28.4460,-96.3961,0.0,31.0,2 
TCOON,ioos:station:TCOON:057:1,2015-06-04T00:12:00Z,28.4460,-96.3961,0.0,30.3,2 
TCOON,ioos:station:TCOON:057:1,2015-06-04T01:12:00Z,28.4460,-96.3961,0.0,29.7,2 
TCOON,ioos:station:TCOON:057:1,2015-06-04T02:12:00Z,28.4460,-96.3961,0.0,29.8,2 
TCOON,ioos:station:TCOON:057:1,2015-06-04T03:12:00Z,28.4460,-96.3961,0.0,29.3,2 
TCOON,ioos:station:TCOON:057:1,2015-06-04T04:12:00Z,28.4460,-96.3961,0.0,29.0,2 
TCOON,ioos:station:TCOON:057:1,2015-06-04T05:12:00Z,28.4460,-96.3961,0.0,29.0,2 
TCOON,ioos:station:TCOON:057:1,2015-06-04T07:12:00Z,28.4460,-96.3961,0.0,28.9,2 
TCOON,ioos:station:TCOON:057:1,2015-06-04T08:12:00Z,28.4460,-96.3961,0.0,28.9,2 
TCOON,ioos:station:TCOON:057:1,2015-06-04T09:12:00Z,28.4460,-96.3961,0.0,28.8,2 
TCOON,ioos:station:TCOON:057:1,2015-06-04T10:12:00Z,28.4460,-96.3961,0.0,28.7,2 
TCOON,ioos:station:TCOON:057:1,2015-06-04T11:12:00Z,28.4460,-96.3961,0.0,28.7,2 
TCOON,ioos:station:TCOON:057:1,2015-06-04T12:24:00Z,28.4460,-96.3961,0.0,28.5,2 
TCOON,ioos:station:TCOON:057:1,2015-06-04T13:12:00Z,28.4460,-96.3961,0.0,28.5,2 
TCOON,ioos:station:TCOON:057:1,2015-06-04T14:12:00Z,28.4460,-96.3961,0.0,28.5,2 
TCOON,ioos:station:TCOON:057:1,2015-06-04T15:12:00Z,28.4460,-96.3961,0.0,28.3,2 
TCOON,ioos:station:TCOON:057:1,2015-06-04T16:12:00Z,28.4460,-96.3961,0.0,28.1,2 
TCOON,ioos:station:TCOON:057:1,2015-06-04T17:18:00Z,28.4460,-96.3961,0.0,28.5,2 
TCOON,ioos:station:TCOON:057:1,2015-06-04T18:18:00Z,28.4460,-96.3961,0.0,28.6,2 
TCOON,ioos:station:TCOON:057:1,2015-06-04T19:18:00Z,28.4460,-96.3961,0.0,28.7,2 
TCOON,ioos:station:TCOON:057:1,2015-06-04T20:12:00Z,28.4460,-96.3961,0.0,28.7,2 
TCOON,ioos:station:TCOON:057:1,2015-06-04T21:12:00Z,28.4460,-96.3961,0.0,28.9,2 
TCOON,ioos:station:TCOON:057:1,2015-06-05T14:36:00Z,28.4460,-96.3961,0.0,29.1,2 
TCOON,ioos:station:TCOON:057:1,2015-06-05T15:12:00Z,28.4460,-96.3961,0.0,28.6,2 
TCOON,ioos:station:TCOON:057:1,2015-06-05T16:18:00Z,28.4460,-96.3961,0.0,28.5,2 
TCOON,ioos:station:TCOON:057:1,2015-06-05T17:12:00Z,28.4460,-96.3961,0.0,28.7,2 
TCOON,ioos:station:TCOON:057:1,2015-06-05T18:12:00Z,28.4460,-96.3961,0.0,29.4,2 
TCOON,ioos:station:TCOON:057:1,2015-06-05T19:12:00Z,28.4460,-96.3961,0.0,29.5,2 
TCOON,ioos:station:TCOON:057:1,2015-06-05T20:12:00Z,28.4460,-96.3961,0.0,29.2,2 
TCOON,ioos:station:TCOON:057:1,2015-06-05T21:12:00Z,28.4460,-96.3961,0.0,30.4,2 
TCOON,ioos:station:TCOON:057:1,2015-06-05T22:12:00Z,28.4460,-96.3961,0.0,31.1,2 
TCOON,ioos:station:TCOON:057:1,2015-06-05T23:12:00Z,28.4460,-96.3961,0.0,31.1,2 
TCOON,ioos:station:TCOON:057:1,2015-06-06T00:12:00Z,28.4460,-96.3961,0.0,30.8,2 
TCOON,ioos:station:TCOON:057:1,2015-06-06T01:12:00Z,28.4460,-96.3961,0.0,30.7,2 
TCOON,ioos:station:TCOON:057:1,2015-06-06T02:12:00Z,28.4460,-96.3961,0.0,30.6,2 
TCOON,ioos:station:TCOON:057:1,2015-06-06T03:18:00Z,28.4460,-96.3961,0.0,30.5,2 
TCOON,ioos:station:TCOON:057:1,2015-06-06T04:36:00Z,28.4460,-96.3961,0.0,30.8,2 
TCOON,ioos:station:TCOON:057:1,2015-06-06T05:12:00Z,28.4460,-96.3961,0.0,30.7,2 
TCOON,ioos:station:TCOON:057:1,2015-06-06T06:30:00Z,28.4460,-96.3961,0.0,30.6,2 
TCOON,ioos:station:TCOON:057:1,2015-06-06T07:18:00Z,28.4460,-96.3961,0.0,30.5,2 
TCOON,ioos:station:TCOON:057:1,2015-06-06T08:18:00Z,28.4460,-96.3961,0.0,30.4,2 
TCOON,ioos:station:TCOON:057:1,2015-06-06T09:48:00Z,28.4460,-96.3961,0.0,30.4,2 
TCOON,ioos:station:TCOON:057:1,2015-06-06T10:12:00Z,28.4460,-96.3961,0.0,30.4,2 
TCOON,ioos:station:TCOON:057:1,2015-06-06T11:12:00Z,28.4460,-96.3961,0.0,30.2,2 
TCOON,ioos:station:TCOON:057:1,2015-06-06T12:18:00Z,28.4460,-96.3961,0.0,30.2,2 
TCOON,ioos:station:TCOON:057:1,2015-06-06T13:18:00Z,28.4460,-96.3961,0.0,30.1,2 
TCOON,ioos:station:TCOON:057:1,2015-06-06T14:12:00Z,28.4460,-96.3961,0.0,29.9,2 
TCOON,ioos:station:TCOON:057:1,2015-06-06T15:12:00Z,28.4460,-96.3961,0.0,29.3,2 
TCOON,ioos:station:TCOON:057:1,2015-06-06T16:18:00Z,28.4460,-96.3961,0.0,28.7,2 
TCOON,ioos:station:TCOON:057:1,2015-06-06T17:12:00Z,28.4460,-96.3961,0.0,28.6,2 
TCOON,ioos:station:TCOON:057:1,2015-06-06T18:12:00Z,28.4460,-96.3961,0.0,28.7,2 
TCOON,ioos:station:TCOON:057:1,2015-06-06T19:12:00Z,28.4460,-96.3961,0.0,29.0,2 
TCOON,ioos:station:TCOON:057:1,2015-06-06T20:24:00Z,28.4460,-96.3961,0.0,29.3,2 
TCOON,ioos:station:TCOON:057:1,2015-06-06T21:24:00Z,28.4460,-96.3961,0.0,29.5,2 
TCOON,ioos:station:TCOON:057:1,2015-06-06T22:18:00Z,28.4460,-96.3961,0.0,29.6,2 
TCOON,ioos:station:TCOON:057:1,2015-06-06T23:12:00Z,28.4460,-96.3961,0.0,30.5,2 
TCOON,ioos:station:TCOON:057:1,2015-06-07T00:12:00Z,28.4460,-96.3961,0.0,31.1,2 
TCOON,ioos:station:TCOON:057:1,2015-06-07T01:12:00Z,28.4460,-96.3961,0.0,30.9,2 
TCOON,ioos:station:TCOON:057:1,2015-06-07T02:12:00Z,28.4460,-96.3961,0.0,30.5,2 
TCOON,ioos:station:TCOON:057:1,2015-06-07T03:12:00Z,28.4460,-96.3961,0.0,30.4,2 
TCOON,ioos:station:TCOON:057:1,2015-06-07T04:12:00Z,28.4460,-96.3961,0.0,30.4,2 
TCOON,ioos:station:TCOON:057:1,2015-06-07T05:12:00Z,28.4460,-96.3961,0.0,30.3,2 
TCOON,ioos:station:TCOON:057:1,2015-06-07T07:12:00Z,28.4460,-96.3961,0.0,30.1,2 
TCOON,ioos:station:TCOON:057:1,2015-06-07T08:18:00Z,28.4460,-96.3961,0.0,30.1,2 
TCOON,ioos:station:TCOON:057:1,2015-06-07T09:12:00Z,28.4460,-96.3961,0.0,29.8,2 
TCOON,ioos:station:TCOON:057:1,2015-06-07T10:12:00Z,28.4460,-96.3961,0.0,29.5,2 
TCOON,ioos:station:TCOON:057:1,2015-06-07T11:12:00Z,28.4460,-96.3961,0.0,29.2,2 
TCOON,ioos:station:TCOON:057:1,2015-06-07T12:24:00Z,28.4460,-96.3961,0.0,29.1,2 
TCOON,ioos:station:TCOON:057:1,2015-06-07T13:12:00Z,28.4460,-96.3961,0.0,29.2,2 
TCOON,ioos:station:TCOON:057:1,2015-06-07T14:12:00Z,28.4460,-96.3961,0.0,29.4,2 
TCOON,ioos:station:TCOON:057:1,2015-06-07T15:12:00Z,28.4460,-96.3961,0.0,29.2,2 
TCOON,ioos:station:TCOON:057:1,2015-06-07T16:18:00Z,28.4460,-96.3961,0.0,29.1,2 
TCOON,ioos:station:TCOON:057:1,2015-06-07T17:12:00Z,28.4460,-96.3961,0.0,28.8,2 
TCOON,ioos:station:TCOON:057:1,2015-06-07T18:12:00Z,28.4460,-96.3961,0.0,28.6,2 
TCOON,ioos:station:TCOON:057:1,2015-06-07T19:18:00Z,28.4460,-96.3961,0.0,29.0,2 
TCOON,ioos:station:TCOON:057:1,2015-06-07T20:12:00Z,28.4460,-96.3961,0.0,29.1,2 
TCOON,ioos:station:TCOON:057:1,2015-06-07T21:12:00Z,28.4460,-96.3961,0.0,29.0,2 
TCOON,ioos:station:TCOON:057:1,2015-06-07T22:12:00Z,28.4460,-96.3961,0.0,28.7,2 
TCOON,ioos:station:TCOON:057:1,2015-06-07T23:12:00Z,28.4460,-96.3961,0.0,28.9,2 
TCOON,ioos:station:TCOON:057:1,2015-06-08T00:12:00Z,28.4460,-96.3961,0.0,29.7,2 
TCOON,ioos:station:TCOON:057:1,2015-06-08T01:12:00Z,28.4460,-96.3961,0.0,29.9,2 
TCOON,ioos:station:TCOON:057:1,2015-06-08T02:12:00Z,28.4460,-96.3961,0.0,29.8,2 
TCOON,ioos:station:TCOON:057:1,2015-06-08T03:18:00Z,28.4460,-96.3961,0.0,29.7,2 
TCOON,ioos:station:TCOON:057:1,2015-06-08T04:12:00Z,28.4460,-96.3961,0.0,29.7,2 
TCOON,ioos:station:TCOON:057:1,2015-06-08T05:12:00Z,28.4460,-96.3961,0.0,29.8,2 
TCOON,ioos:station:TCOON:057:1,2015-06-08T06:18:00Z,28.4460,-96.3961,0.0,29.4,2 
TCOON,ioos:station:TCOON:057:1,2015-06-08T07:36:00Z,28.4460,-96.3961,0.0,29.0,2 
TCOON,ioos:station:TCOON:057:1,2015-06-08T08:18:00Z,28.4460,-96.3961,0.0,28.9,2 
TCOON,ioos:station:TCOON:057:1,2015-06-08T09:42:00Z,28.4460,-96.3961,0.0,28.7,2 
TCOON,ioos:station:TCOON:057:1,2015-06-08T10:12:00Z,28.4460,-96.3961,0.0,28.7,2 
TCOON,ioos:station:TCOON:057:1,2015-06-08T11:12:00Z,28.4460,-96.3961,0.0,28.8,2 
TCOON,ioos:station:TCOON:057:1,2015-06-08T12:12:00Z,28.4460,-96.3961,0.0,29.0,2 
TCOON,ioos:station:TCOON:057:1,2015-06-08T13:12:00Z,28.4460,-96.3961,0.0,28.9,2 
TCOON,ioos:station:TCOON:057:1,2015-06-08T14:12:00Z,28.4460,-96.3961,0.0,28.9,2 
TCOON,ioos:station:TCOON:057:1,2015-06-08T15:18:00Z,28.4460,-96.3961,0.0,29.0,2 
TCOON,ioos:station:TCOON:057:1,2015-06-08T16:12:00Z,28.4460,-96.3961,0.0,29.1,2 
TCOON,ioos:station:TCOON:057:1,2015-06-08T17:12:00Z,28.4460,-96.3961,0.0,28.7,2 
TCOON,ioos:station:TCOON:057:1,2015-06-08T18:12:00Z,28.4460,-96.3961,0.0,28.6,2 
TCOON,ioos:station:TCOON:057:1,2015-06-08T19:18:00Z,28.4460,-96.3961,0.0,28.6,2 
TCOON,ioos:station:TCOON:057:1,2015-06-08T20:30:00Z,28.4460,-96.3961,0.0,28.8,2 
TCOON,ioos:station:TCOON:057:1,2015-06-08T21:18:00Z,28.4460,-96.3961,0.0,28.9,2 
TCOON,ioos:station:TCOON:057:1,2015-06-08T22:24:00Z,28.4460,-96.3961,0.0,29.2,2 
TCOON,ioos:station:TCOON:057:1,2015-06-08T23:18:00Z,28.4460,-96.3961,0.0,29.5,2 
TCOON,ioos:station:TCOON:057:1,2015-06-09T00:12:00Z,28.4460,-96.3961,0.0,29.6,2 
TCOON,ioos:station:TCOON:057:1,2015-06-09T01:12:00Z,28.4460,-96.3961,0.0,29.8,2 
TCOON,ioos:station:TCOON:057:1,2015-06-09T02:12:00Z,28.4460,-96.3961,0.0,29.6,2 
TCOON,ioos:station:TCOON:057:1,2015-06-09T03:12:00Z,28.4460,-96.3961,0.0,29.6,2 
TCOON,ioos:station:TCOON:057:1,2015-06-09T04:12:00Z,28.4460,-96.3961,0.0,29.6,2 
TCOON,ioos:station:TCOON:057:1,2015-06-09T05:12:00Z,28.4460,-96.3961,0.0,29.4,2 
TCOON,ioos:station:TCOON:057:1,2015-06-09T07:06:00Z,28.4460,-96.3961,0.0,29.2,2 
TCOON,ioos:station:TCOON:057:1,2015-06-09T08:18:00Z,28.4460,-96.3961,0.0,28.8,2 
TCOON,ioos:station:TCOON:057:1,2015-06-09T09:12:00Z,28.4460,-96.3961,0.0,28.8,2 
TCOON,ioos:station:TCOON:057:1,2015-06-09T10:18:00Z,28.4460,-96.3961,0.0,28.7,2 
TCOON,ioos:station:TCOON:057:1,2015-06-09T11:18:00Z,28.4460,-96.3961,0.0,28.9,2 
TCOON,ioos:station:TCOON:057:1,2015-06-09T12:12:00Z,28.4460,-96.3961,0.0,28.8,2 
TCOON,ioos:station:TCOON:057:1,2015-06-09T13:12:00Z,28.4460,-96.3961,0.0,28.8,2 
TCOON,ioos:station:TCOON:057:1,2015-06-09T14:12:00Z,28.4460,-96.3961,0.0,29.0,2 
TCOON,ioos:station:TCOON:057:1,2015-06-09T15:18:00Z,28.4460,-96.3961,0.0,29.2,2 
TCOON,ioos:station:TCOON:057:1,2015-06-09T16:18:00Z,28.4460,-96.3961,0.0,29.2,2 
TCOON,ioos:station:TCOON:057:1,2015-06-09T17:12:00Z,28.4460,-96.3961,0.0,29.2,2 
TCOON,ioos:station:TCOON:057:1,2015-06-09T18:18:00Z,28.4460,-96.3961,0.0,29.4,2 
TCOON,ioos:station:TCOON:057:1,2015-06-09T19:12:00Z,28.4460,-96.3961,0.0,29.3,2 
TCOON,ioos:station:TCOON:057:1,2015-06-09T20:18:00Z,28.4460,-96.3961,0.0,29.2,2 
TCOON,ioos:station:TCOON:057:1,2015-06-09T21:18:00Z,28.4460,-96.3961,0.0,29.3,2 
TCOON,ioos:station:TCOON:057:1,2015-06-09T22:24:00Z,28.4460,-96.3961,0.0,30.2,2 
TCOON,ioos:station:TCOON:057:1,2015-06-09T23:18:00Z,28.4460,-96.3961,0.0,30.8,2 
TCOON,ioos:station:TCOON:057:1,2015-06-10T00:12:00Z,28.4460,-96.3961,0.0,30.7,2 
TCOON,ioos:station:TCOON:057:1,2015-06-10T01:12:00Z,28.4460,-96.3961,0.0,30.4,2 
TCOON,ioos:station:TCOON:057:1,2015-06-10T02:12:00Z,28.4460,-96.3961,0.0,30.0,2 
TCOON,ioos:station:TCOON:057:1,2015-06-10T03:12:00Z,28.4460,-96.3961,0.0,29.8,2 
TCOON,ioos:station:TCOON:057:1,2015-06-10T04:18:00Z,28.4460,-96.3961,0.0,29.7,2 
TCOON,ioos:station:TCOON:057:1,2015-06-10T05:12:00Z,28.4460,-96.3961,0.0,29.6,2 
TCOON,ioos:station:TCOON:057:1,2015-06-10T06:18:00Z,28.4460,-96.3961,0.0,29.4,2 
TCOON,ioos:station:TCOON:057:1,2015-06-10T07:24:00Z,28.4460,-96.3961,0.0,29.4,2 
TCOON,ioos:station:TCOON:057:1,2015-06-10T08:18:00Z,28.4460,-96.3961,0.0,29.4,2 
TCOON,ioos:station:TCOON:057:1,2015-06-10T09:12:00Z,28.4460,-96.3961,0.0,29.4,2 
TCOON,ioos:station:TCOON:057:1,2015-06-10T10:12:00Z,28.4460,-96.3961,0.0,29.3,2 
TCOON,ioos:station:TCOON:057:1,2015-06-10T11:12:00Z,28.4460,-96.3961,0.0,29.2,2 
TCOON,ioos:station:TCOON:057:1,2015-06-10T12:18:00Z,28.4460,-96.3961,0.0,29.2,2 
TCOON,ioos:station:TCOON:057:1,2015-06-10T13:12:00Z,28.4460,-96.3961,0.0,29.2,2 
TCOON,ioos:station:TCOON:057:1,2015-06-10T14:12:00Z,28.4460,-96.3961,0.0,29.1,2 
TCOON,ioos:station:TCOON:057:1,2015-06-10T15:24:00Z,28.4460,-96.3961,0.0,29.1,2 
TCOON,ioos:station:TCOON:057:1,2015-06-10T16:18:00Z,28.4460,-96.3961,0.0,29.1,2 
TCOON,ioos:station:TCOON:057:1,2015-06-10T17:18:00Z,28.4460,-96.3961,0.0,29.2,2 
TCOON,ioos:station:TCOON:057:1,2015-06-10T18:18:00Z,28.4460,-96.3961,0.0,29.4,2 
TCOON,ioos:station:TCOON:057:1,2015-06-10T19:18:00Z,28.4460,-96.3961,0.0,29.4,2 
TCOON,ioos:station:TCOON:057:1,2015-06-10T20:18:00Z,28.4460,-96.3961,0.0,29.8,2 
TCOON,ioos:station:TCOON:057:1,2015-06-10T21:18:00Z,28.4460,-96.3961,0.0,30.2,2 
TCOON,ioos:station:TCOON:057:1,2015-06-10T22:30:00Z,28.4460,-96.3961,0.0,30.6,2 
TCOON,ioos:station:TCOON:057:1,2015-06-10T23:18:00Z,28.4460,-96.3961,0.0,30.6,2 
TCOON,ioos:station:TCOON:057:1,2015-06-11T00:12:00Z,28.4460,-96.3961,0.0,30.4,2 
TCOON,ioos:station:TCOON:057:1,2015-06-11T01:12:00Z,28.4460,-96.3961,0.0,30.1,2 
TCOON,ioos:station:TCOON:057:1,2015-06-11T02:12:00Z,28.4460,-96.3961,0.0,30.1,2 
TCOON,ioos:station:TCOON:057:1,2015-06-11T03:12:00Z,28.4460,-96.3961,0.0,30.0,2 
TCOON,ioos:station:TCOON:057:1,2015-06-11T04:18:00Z,28.4460,-96.3961,0.0,29.4,2 
TCOON,ioos:station:TCOON:057:1,2015-06-11T05:12:00Z,28.4460,-96.3961,0.0,29.3,2 
TCOON,ioos:station:TCOON:057:1,2015-06-11T07:12:00Z,28.4460,-96.3961,0.0,29.1,2 
TCOON,ioos:station:TCOON:057:1,2015-06-11T08:12:00Z,28.4460,-96.3961,0.0,29.1,2 
TCOON,ioos:station:TCOON:057:1,2015-06-11T09:12:00Z,28.4460,-96.3961,0.0,28.8,2 
TCOON,ioos:station:TCOON:057:1,2015-06-11T10:12:00Z,28.4460,-96.3961,0.0,28.7,2 
TCOON,ioos:station:TCOON:057:1,2015-06-11T11:18:00Z,28.4460,-96.3961,0.0,28.6,2 
TCOON,ioos:station:TCOON:057:1,2015-06-11T12:12:00Z,28.4460,-96.3961,0.0,28.4,2 
TCOON,ioos:station:TCOON:057:1,2015-06-11T13:12:00Z,28.4460,-96.3961,0.0,28.4,2 
TCOON,ioos:station:TCOON:057:1,2015-06-11T14:12:00Z,28.4460,-96.3961,0.0,28.5,2 
TCOON,ioos:station:TCOON:057:1,2015-06-11T15:12:00Z,28.4460,-96.3961,0.0,28.7,2 
TCOON,ioos:station:TCOON:057:1,2015-06-11T16:12:00Z,28.4460,-96.3961,0.0,28.8,2 
TCOON,ioos:station:TCOON:057:1,2015-06-11T17:18:00Z,28.4460,-96.3961,0.0,28.8,2 
TCOON,ioos:station:TCOON:057:1,2015-06-11T18:18:00Z,28.4460,-96.3961,0.0,28.9,2 
TCOON,ioos:station:TCOON:057:1,2015-06-11T19:18:00Z,28.4460,-96.3961,0.0,29.0,2 
TCOON,ioos:station:TCOON:057:1,2015-06-11T20:18:00Z,28.4460,-96.3961,0.0,29.0,2 
TCOON,ioos:station:TCOON:057:1,2015-06-11T21:12:00Z,28.4460,-96.3961,0.0,29.1,2 
TCOON,ioos:station:TCOON:057:1,2015-06-11T22:18:00Z,28.4460,-96.3961,0.0,30.1,2 
TCOON,ioos:station:TCOON:057:1,2015-06-11T23:18:00Z,28.4460,-96.3961,0.0,30.2,2 
TCOON,ioos:station:TCOON:057:1,2015-06-12T00:18:00Z,28.4460,-96.3961,0.0,30.3,2 
TCOON,ioos:station:TCOON:057:1,2015-06-12T01:12:00Z,28.4460,-96.3961,0.0,30.3,2 
TCOON,ioos:station:TCOON:057:1,2015-06-12T02:12:00Z,28.4460,-96.3961,0.0,30.2,2 
TCOON,ioos:station:TCOON:057:1,2015-06-12T03:12:00Z,28.4460,-96.3961,0.0,29.8,2 
TCOON,ioos:station:TCOON:057:1,2015-06-12T04:18:00Z,28.4460,-96.3961,0.0,29.3,2 
TCOON,ioos:station:TCOON:057:1,2015-06-12T05:12:00Z,28.4460,-96.3961,0.0,29.3,2 
TCOON,ioos:station:TCOON:057:1,2015-06-12T07:12:00Z,28.4460,-96.3961,0.0,29.0,2 
TCOON,ioos:station:TCOON:057:1,2015-06-12T08:18:00Z,28.4460,-96.3961,0.0,28.5,2 
TCOON,ioos:station:TCOON:057:1,2015-06-12T09:12:00Z,28.4460,-96.3961,0.0,28.1,2 
TCOON,ioos:station:TCOON:057:1,2015-06-12T10:12:00Z,28.4460,-96.3961,0.0,27.6,2 
TCOON,ioos:station:TCOON:057:1,2015-06-12T11:12:00Z,28.4460,-96.3961,0.0,27.2,2 
TCOON,ioos:station:TCOON:057:1,2015-06-12T12:12:00Z,28.4460,-96.3961,0.0,27.2,2 
TCOON,ioos:station:TCOON:057:1,2015-06-12T13:18:00Z,28.4460,-96.3961,0.0,27.2,2 
TCOON,ioos:station:TCOON:057:1,2015-06-12T14:12:00Z,28.4460,-96.3961,0.0,27.2,2 
TCOON,ioos:station:TCOON:057:1,2015-06-12T15:18:00Z,28.4460,-96.3961,0.0,27.4,2 
TCOON,ioos:station:TCOON:057:1,2015-06-12T16:12:00Z,28.4460,-96.3961,0.0,27.7,2 
TCOON,ioos:station:TCOON:057:1,2015-06-12T17:18:00Z,28.4460,-96.3961,0.0,28.3,2 
TCOON,ioos:station:TCOON:057:1,2015-06-12T18:12:00Z,28.4460,-96.3961,0.0,28.6,2 
TCOON,ioos:station:TCOON:057:1,2015-06-12T19:18:00Z,28.4460,-96.3961,0.0,29.2,2 
TCOON,ioos:station:TCOON:057:1,2015-06-12T20:12:00Z,28.4460,-96.3961,0.0,29.8,2 
TCOON,ioos:station:TCOON:057:1,2015-06-12T21:18:00Z,28.4460,-96.3961,0.0,30.2,2 
TCOON,ioos:station:TCOON:057:1,2015-06-12T22:18:00Z,28.4460,-96.3961,0.0,30.0,2 
TCOON,ioos:station:TCOON:057:1,2015-06-12T23:18:00Z,28.4460,-96.3961,0.0,30.0,2 
TCOON,ioos:station:TCOON:057:1,2015-06-13T00:12:00Z,28.4460,-96.3961,0.0,29.9,2 
TCOON,ioos:station:TCOON:057:1,2015-06-13T01:12:00Z,28.4460,-96.3961,0.0,30.0,2 
TCOON,ioos:station:TCOON:057:1,2015-06-13T02:12:00Z,28.4460,-96.3961,0.0,30.2,2 
TCOON,ioos:station:TCOON:057:1,2015-06-13T03:12:00Z,28.4460,-96.3961,0.0,29.5,2 
TCOON,ioos:station:TCOON:057:1,2015-06-13T04:12:00Z,28.4460,-96.3961,0.0,29.3,2 
TCOON,ioos:station:TCOON:057:1,2015-06-13T05:12:00Z,28.4460,-96.3961,0.0,29.2,2 
TCOON,ioos:station:TCOON:057:1,2015-06-13T06:18:00Z,28.4460,-96.3961,0.0,29.1,2 
TCOON,ioos:station:TCOON:057:1,2015-06-13T07:18:00Z,28.4460,-96.3961,0.0,29.0,2 
TCOON,ioos:station:TCOON:057:1,2015-06-13T08:18:00Z,28.4460,-96.3961,0.0,28.9,2 
TCOON,ioos:station:TCOON:057:1,2015-06-13T09:12:00Z,28.4460,-96.3961,0.0,28.8,2 
TCOON,ioos:station:TCOON:057:1,2015-06-13T10:12:00Z,28.4460,-96.3961,0.0,28.8,2 
TCOON,ioos:station:TCOON:057:1,2015-06-13T11:18:00Z,28.4460,-96.3961,0.0,28.7,2 
TCOON,ioos:station:TCOON:057:1,2015-06-13T12:12:00Z,28.4460,-96.3961,0.0,28.7,2 
TCOON,ioos:station:TCOON:057:1,2015-06-13T13:12:00Z,28.4460,-96.3961,0.0,28.7,2 
TCOON,ioos:station:TCOON:057:1,2015-06-13T14:12:00Z,28.4460,-96.3961,0.0,28.7,2 
TCOON,ioos:station:TCOON:057:1,2015-06-13T15:12:00Z,28.4460,-96.3961,0.0,28.7,2 
TCOON,ioos:station:TCOON:057:1,2015-06-13T16:12:00Z,28.4460,-96.3961,0.0,28.9,2 
TCOON,ioos:station:TCOON:057:1,2015-06-13T17:18:00Z,28.4460,-96.3961,0.0,29.1,2 
TCOON,ioos:station:TCOON:057:1,2015-06-13T18:12:00Z,28.4460,-96.3961,0.0,29.0,2 
TCOON,ioos:station:TCOON:057:1,2015-06-13T19:18:00Z,28.4460,-96.3961,0.0,29.3,2 
TCOON,ioos:station:TCOON:057:1,2015-06-13T20:18:00Z,28.4460,-96.3961,0.0,29.8,2 
TCOON,ioos:station:TCOON:057:1,2015-06-13T21:18:00Z,28.4460,-96.3961,0.0,29.9,2 
TCOON,ioos:station:TCOON:057:1,2015-06-13T22:18:00Z,28.4460,-96.3961,0.0,30.0,2 
TCOON,ioos:station:TCOON:057:1,2015-06-13T23:18:00Z,28.4460,-96.3961,0.0,30.0,2 
TCOON,ioos:station:TCOON:057:1,2015-06-14T00:12:00Z,28.4460,-96.3961,0.0,30.2,2 
TCOON,ioos:station:TCOON:057:1,2015-06-14T01:12:00Z,28.4460,-96.3961,0.0,30.3,2 
TCOON,ioos:station:TCOON:057:1,2015-06-14T02:12:00Z,28.4460,-96.3961,0.0,30.5,2 
TCOON,ioos:station:TCOON:057:1,2015-06-14T03:12:00Z,28.4460,-96.3961,0.0,30.0,2 
TCOON,ioos:station:TCOON:057:1,2015-06-14T04:18:00Z,28.4460,-96.3961,0.0,30.1,2 
TCOON,ioos:station:TCOON:057:1,2015-06-14T05:24:00Z,28.4460,-96.3961,0.0,30.2,2 